Hourly Data Report for October 26, 2015

All times are specified in Local Standard Time (LST). Add 1 hour to adjust for Daylight Saving Time where and when it is observed.

FREDERICTON
NEW BRUNSWICK

45°52'08.000" N
66°32'14.000" W
20.70 m
8101505
71700
YFC

Download Data

Hourly Data (October 2015)
Hourly Data Report for October 26, 2015
Temp Definition
°C
Dew Point Temp Definition
°C
Rel Hum Definition
%
Wind Dir Definition
10's deg

Wind Spd Definition
km/h
Visibility Definition
km
Stn Press Definition
kPa
Hmdx Definition


Wind Chill Definition


Weather Definition


TIME
00:00 Legend Double Dagger 4.8 1.9 82 31 11 16.1 101.59     LegendNANA
01:00 Legend Double Dagger 4.2 0.5 77 30 15 16.1 101.67     LegendNANA
02:00 Legend Double Dagger 3.1 0.2 81 30 11 16.1 101.76     LegendNANA
03:00 Legend Double Dagger 1.9 0.0 87 30 11 16.1 101.82     LegendNANA
04:00 Legend Double Dagger 1.7 -0.8 84 30 15 16.1 101.87     LegendNANA
05:00 Legend Double Dagger 1.0 -1.4 84 29 13 16.1 101.96     LegendNANA
06:00 Legend Double Dagger 0.3 -1.9 85 28 5 16.1 102.08     LegendNANA
07:00 Legend Double Dagger -0.8 -2.6 88 LegendMM 4 16.1 102.16   -2 LegendNANA
08:00 Legend Double Dagger 1.1 -2.1 79 30 5 16.1 102.27     LegendNANA
09:00 Legend Double Dagger 2.7 -2.5 69 30 15 16.1 102.34     LegendNANA
10:00 Legend Double Dagger 3.1 -2.5 67 34 26 16.1 102.41     LegendNANA
11:00 Legend Double Dagger 3.4 -3.3 61 33 18 16.1 102.46     LegendNANA
12:00 Legend Double Dagger 5.1 -4.2 51 34 28 16.1 102.45     LegendNANA
13:00 Legend Double Dagger 5.3 -4.6 49 32 24 16.1 102.46     LegendNANA
14:00 Legend Double Dagger 5.4 -4.7 48 35 13 16.1 102.46     LegendNANA
15:00 Legend Double Dagger 5.7 -5.6 44 28 18 16.1 102.49     LegendNANA
16:00 Legend Double Dagger 4.7 -7.1 42 29 21 16.1 102.54     LegendNANA
17:00 Legend Double Dagger 3.4 -7.0 47 29 15 16.1 102.62     LegendNANA
18:00 Legend Double Dagger 1.9 -6.5 54 30 9 16.1 102.67     LegendNANA
19:00 Legend Double Dagger 0.9 -6.4 58 31 11 16.1 102.76     LegendNANA
20:00 Legend Double Dagger -2.4 -5.4 80 20 5 16.1 102.81   -4 LegendNANA
21:00 Legend Double Dagger -2.5 -4.9 84 22 4 16.1 102.85   -4 LegendNANA
22:00 Legend Double Dagger -3.6 -5.8 85 23 11 16.1 102.92   -8 LegendNANA
23:00 Legend Double Dagger -4.2 -5.8 89 24 8 16.1 102.96   -8 LegendNANA

Notes on Data Quality.

Legend

  • E = Estimated
  • M = Missing
  • NA = Not Available
  • ‡ = Partner data that is not subject to review by the National Climate Archives
Date modified: